This demonstration page uses our WeatherBlox Daily Observations layout. Learn more.

Hourly Observations for February 24, 2017

Temp ( °F °C ) Dew Point ( °F °C ) Humidity (%) Winds ( mph kmh ) Pressure ( in mb ) Visibility ( mi km ) Precip ( " mm )
12:15 am 00:15 Clear 61 16 54 12 77 77 undefined N/A 29.88 1012 10 16.09344 0 0
12:35 am 00:35 Clear 61 16 54 12 77 77 undefined N/A 29.88 1012 10 16.09344 0 0
12:55 am 00:55 Clear 61 16 54 12 77 77 undefined N/A 29.88 1012 10 16.09344 0 0
1:15 am 01:15 Clear 61 16 54 12 77 77 undefined N/A 29.88 1012 10 16.09344 0 0
1:35 am 01:35 Clear 59 15 54 12 82 82 undefined N/A 29.91 1013 10 16.09344 0 0
1:55 am 01:55 Clear 59 15 54 12 82 82 undefined N/A 29.91 1013 10 16.09344 0 0
2:15 am 02:15 Clear 59 15 54 12 82 82 undefined N/A 29.91 1013 10 16.09344 0 0
2:35 am 02:35 Clear 59 15 54 12 82 82 undefined N/A 29.88 1012 10 16.09344 0 0
2:55 am 02:55 Clear 59 15 54 12 82 82 undefined N/A 29.88 1012 10 16.09344 0 0
3:15 am 03:15 Clear 59 15 54 12 82 82 undefined N/A 29.88 1012 10 16.09344 0 0
3:35 am 03:35 Clear 57 14 54 12 88 88 undefined N/A 29.88 1012 10 16.09344 0 0
3:55 am 03:55 Clear 57 14 54 12 88 88 undefined N/A 29.91 1013 10 16.09344 0 0
4:15 am 04:15 Clear 55 13 52 11 88 88 undefined N/A 29.91 1013 10 16.09344 0 0
4:35 am 04:35 Clear 57 14 54 12 88 88 undefined N/A 29.91 1013 10 16.09344 0 0
4:55 am 04:55 Clear 55 13 54 12 94 94 undefined N/A 29.91 1013 10 16.09344 0 0
5:15 am 05:15 Clear 55 13 54 12 94 94 undefined N/A 29.91 1013 10 16.09344 0 0
5:35 am 05:35 Clear 55 13 54 12 94 94 undefined N/A 29.91 1013 10 16.09344 0 0
5:55 am 05:55 Clear 55 13 54 12 94 94 undefined N/A 29.91 1013 10 16.09344 0 0
6:15 am 06:15 Clear 54 12 54 12 100 100 undefined N/A 29.91 1013 10 16.09344 0 0
6:35 am 06:35 Clear 54 12 52 11 94 94 undefined N/A 29.91 1013 10 16.09344 0 0
6:55 am 06:55 Sunny 54 12 54 12 100 100 undefined N/A 29.91 1013 10 16.09344 0 0
7:15 am 07:15 Sunny 54 12 54 12 100 100 undefined N/A 29.91 1013 10 16.09344 0 0
7:35 am 07:35 Sunny 55 13 54 12 94 94 undefined N/A 29.91 1013 10 16.09344 0 0
7:55 am 07:55 Sunny 55 13 55 13 100 100 undefined N/A 29.91 1013 10 16.09344 0 0
8:15 am 08:15 Sunny 59 15 55 13 88 88 undefined N/A 29.94 1014 10 16.09344 0 0
8:35 am 08:35 Sunny 59 15 55 13 88 88 undefined N/A 29.94 1014 10 16.09344 0 0
8:55 am 08:55 Sunny 61 16 55 13 83 83 undefined N/A 29.94 1014 10 16.09344 0 0
9:15 am 09:15 Sunny 61 16 55 13 83 83 undefined N/A 29.94 1014 10 16.09344 0 0
9:35 am 09:35 Sunny 63 17 55 13 77 77 undefined N/A 29.94 1014 10 16.09344 0 0
9:55 am 09:55 Sunny 64 18 55 13 73 73 undefined N/A 29.94 1014 10 16.09344 0 0
10:15 am 10:15 Sunny 66 19 55 13 68 68 undefined N/A 29.94 1014 10 16.09344 0 0
10:35 am 10:35 Sunny 68 20 55 13 64 64 undefined N/A 29.91 1013 10 16.09344 0 0
10:55 am 10:55 Sunny 70 21 55 13 60 60 undefined N/A 29.91 1013 10 16.09344 0 0
11:15 am 11:15 Sunny 72 22 57 14 61 61 undefined N/A 29.91 1013 10 16.09344 0 0
11:35 am 11:35 Sunny 73 23 55 13 53 53 undefined N/A 29.88 1012 10 16.09344 0 0
11:55 am 11:55 Sunny 75 24 55 13 50 50 undefined N/A 29.88 1012 10 16.09344 0 0
12:15 pm 12:15 Sunny 75 24 55 13 50 50 undefined N/A 29.88 1012 10 16.09344 0 0
12:35 pm 12:35 Sunny 77 25 55 13 47 47 undefined N/A 29.85 1011 10 16.09344 0 0
12:55 pm 12:55 Partly Cloudy 75 24 55 13 50 50 undefined N/A 29.85 1011 10 16.09344 0 0
1:15 pm 13:15 Mostly Cloudy 77 25 55 13 47 47 undefined N/A 29.85 1011 10 16.09344 0 0
1:35 pm 13:35 Partly Cloudy 77 25 55 13 47 47 undefined N/A 29.83 1010 10 16.09344 0 0
1:55 pm 13:55 Partly Cloudy 77 25 55 13 47 47 undefined N/A 29.83 1010 10 16.09344 0 0
2:15 pm 14:15 Partly Cloudy 77 25 54 12 44 44 undefined N/A 29.83 1010 10 16.09344 0 0
2:35 pm 14:35 Partly Cloudy 77 25 55 13 47 47 undefined N/A 29.83 1010 10 16.09344 0 0
2:55 pm 14:55 Partly Cloudy 77 25 54 12 44 44 undefined N/A 29.83 1010 10 16.09344 0 0
3:15 pm 15:15 Partly Cloudy 77 25 54 12 44 44 undefined N/A 29.83 1010 10 16.09344 0 0
3:35 pm 15:35 Partly Cloudy 77 25 54 12 44 44 undefined N/A 29.8 1009 10 16.09344 0 0
3:55 pm 15:55 Sunny 77 25 54 12 44 44 undefined N/A 29.8 1009 10 16.09344 0 0
4:15 pm 16:15 Sunny 77 25 54 12 44 44 undefined N/A 29.8 1009 10 16.09344 0 0
4:35 pm 16:35 Sunny 77 25 54 12 44 44 undefined N/A 29.8 1009 10 16.09344 0 0
4:55 pm 16:55 Sunny 77 25 54 12 44 44 undefined N/A 29.8 1009 10 16.09344 0 0
5:15 pm 17:15 Partly Cloudy 75 24 54 12 47 47 undefined N/A 29.8 1009 10 16.09344 0 0
5:35 pm 17:35 Sunny 73 23 54 12 50 50 undefined N/A 29.8 1009 10 16.09344 0 0
5:55 pm 17:55 Sunny 73 23 54 12 50 50 undefined N/A 29.8 1009 10 16.09344 0 0
6:15 pm 18:15 Clear 72 22 54 12 53 53 undefined N/A 29.8 1009 10 16.09344 0 0
6:35 pm 18:35 Clear 72 22 54 12 53 53 undefined N/A 29.8 1009 10 16.09344 0 0
6:55 pm 18:55 Clear 70 21 54 12 57 57 undefined N/A 29.8 1009 10 16.09344 0 0
7:15 pm 19:15 Clear 70 21 54 12 57 57 undefined N/A 29.8 1009 10 16.09344 0 0
7:35 pm 19:35 Clear 70 21 54 12 57 57 undefined N/A 29.8 1009 10 16.09344 0 0
7:55 pm 19:55 Clear 70 21 54 12 57 57 undefined N/A 29.8 1009 10 16.09344 0 0
8:15 pm 20:15 Clear 68 20 54 12 60 60 undefined N/A 29.8 1009 10 16.09344 0 0
8:35 pm 20:35 Clear 68 20 55 13 64 64 undefined N/A 29.8 1009 10 16.09344 0 0
8:55 pm 20:55 Clear 66 19 57 14 73 73 undefined N/A 29.8 1009 10 16.09344 0 0
9:15 pm 21:15 Clear 66 19 57 14 73 73 undefined N/A 29.8 1009 10 16.09344 0 0
9:35 pm 21:35 Clear 64 18 59 15 83 83 undefined N/A 29.77 1008 10 16.09344 0 0
9:55 pm 21:55 Clear 64 18 59 15 83 83 undefined N/A 29.77 1008 10 16.09344 0 0
10:15 pm 22:15 Clear 64 18 59 15 83 83 undefined N/A 29.77 1008 10 16.09344 0 0
10:35 pm 22:35 Clear 64 18 59 15 83 83 undefined N/A 29.77 1008 10 16.09344 0 0
10:55 pm 22:55 Clear 64 18 59 15 83 83 undefined N/A 29.77 1008 10 16.09344 0 0
11:15 pm 23:15 Clear 64 18 59 15 83 83 undefined N/A 29.77 1008 10 16.09344 0 0
11:35 pm 23:35 Mostly Cloudy 64 18 61 16 88 88 undefined N/A 29.77 1008 10 16.09344 0 0
11:55 pm 23:55 Mostly Cloudy 64 18 61 16 88 88 undefined N/A 29.77 1008 10 16.09344 0 0

Powered by AerisWeather